Location: Alpine
(43.1636°N, 111.0180°W)
Time: 05:43:43
(UTC+00:00)

Tiros 1 despin weight - Pass Details

Date: 27 May 2022
Orbit: 591 x 639 km, 48.2° (Epoch: 30 June)

Event Time Altitude Azimuth Distance (km) Brightness Sun altitude
Rises 08:23:27 0° 282° (WNW) 2,824 ? -23.9°
Enters shadow 08:23:33 - 282° (WNW) 2,792 ? -23.9°
Reaches altitude 10° 08:26:51 10° 255° (WSW) 1,915 - -23.8°
Maximum altitude 08:28:52 13° 227° (SW) 1,721 - -23.7°
Drops below altitude 10° 08:30:53 10° 200° (SSW) 1,909 - -23.6°
Sets 08:34:17 0° 172° (S) 2,808 - -23.4°
